Theta_e
336 340 338 337 336 332 329 330 331 331 331 331 333 334 332 332 335 338 341 341 342 341 341 341 342 343 344 346 348 349 350 349 347 344 340 336 335 340 344 344 345 345
334 339 338 335 335 333 329 328 327 328 327 328 328 328 327 327 327 331 336 340 341 341 340 340 341 342 344 344 344 347 350 349 347 346 342 337 336 341 344 344 345 345
330 335 337 334 332 331 331 328 327 326 326 326 326 326 326 326 325 327 329 333 338 340 341 340 340 342 343 342 343 345 348 347 345 344 343 340 339 342 343 344 345 345
328 329 331 331 328 328 329 329 327 326 326 326 326 326 326 326 325 325 325 328 332 336 339 340 340 340 342 342 342 342 343 345 344 343 343 342 340 340 339 342 345 344
326 327 328 327 326 326 326 327 326 326 326 326 326 326 326 325 325 325 325 325 328 332 337 340 340 339 340 340 342 342 341 341 342 342 342 342 341 339 337 339 341 344
325 325 326 327 326 325 326 326 326 326 326 326 326 326 326 326 326 326 325 325 326 329 333 337 340 341 339 339 340 340 340 340 340 341 341 341 341 340 339 338 338 339
325 325 325 325 326 326 326 326 325 326 326 326 326 326 326 326 326 325 325 325 325 327 330 334 338 340 340 339 338 339 339 339 340 341 340 340 341 340 340 339 338 336
329 326 324 323 324 325 326 326 326 326 326 326 326 326 326 326 326 326 325 325 325 326 328 331 334 336 339 339 338 337 337 337 338 339 340 340 341 340 339 339 339 338
335 331 327 326 324 323 323 324 325 326 326 327 326 326 326 326 326 325 324 325 325 326 327 329 332 334 335 338 338 338 337 336 336 337 338 339 339 339 339 338 338 338
343 337 332 330 327 324 323 322 322 324 324 326 326 326 326 326 325 325 324 324 326 326 327 329 332 333 334 335 337 337 337 337 336 336 336 337 337 338 339 340 339 337
348 343 339 335 331 328 326 324 323 322 322 323 323 324 324 324 324 324 324 324 325 326 328 329 331 333 334 335 335 337 336 336 336 336 335 335 336 337 337 339 339 338
352 349 345 341 336 333 330 328 325 324 323 322 322 322 322 322 323 323 323 323 324 326 328 329 330 332 334 335 335 336 336 336 336 336 335 335 335 335 336 337 337 338
354 352 351 348 344 339 335 332 329 327 326 324 323 322 322 322 322 322 323 324 324 326 328 329 331 332 334 335 335 336 336 337 336 336 336 335 334 334 334 335 336 336
356 355 354 352 349 345 341 336 333 331 329 328 326 325 324 323 323 323 323 324 325 326 328 330 333 334 335 335 336 336 336 336 336 336 336 336 335 334 333 334 333 334
356 356 355 354 352 350 346 342 338 336 333 331 330 329 327 326 326 325 326 326 327 328 330 333 334 336 336 336 337 336 336 335 336 336 336 336 336 335 333 332 332 332
357 357 356 356 355 353 351 347 343 340 338 335 334 332 331 330 329 329 329 329 330 331 332 335 336 336 336 336 336 336 335 335 335 335 335 335 335 335 334 333 332 330
358 358 358 358 357 356 354 352 348 344 341 340 338 336 335 334 333 333 333 333 333 334 335 336 336 336 336 336 335 336 337 336 335 334 334 334 334 334 334 333 331 331
360 360 360 360 360 359 357 355 352 348 345 343 342 340 339 338 338 337 337 336 336 336 336 336 336 336 335 336 336 336 336 337 335 334 334 334 333 332 332 332 331 331
360 361 362 362 361 361 359 357 355 352 349 346 345 343 342 341 340 339 339 339 339 339 338 337 337 337 337 337 336 337 337 338 337 335 334 333 333 332 331 331 331 330
360 361 362 363 363 362 361 359 356 354 352 349 347 346 346 345 344 343 342 342 341 339 338 338 338 338 337 338 338 337 337 339 339 338 336 334 333 332 332 331 331 330
358 360 363 364 364 364 363 361 359 356 353 351 349 348 348 347 347 346 345 344 342 341 340 339 339 338 338 339 339 339 340 341 343 342 341 338 335 334 334 333 332 332
360 361 363 365 365 365 364 363 361 358 355 353 351 350 349 349 348 349 348 347 345 344 343 342 340 340 339 339 340 342 343 344 345 345 344 342 338 336 335 334 334 333
362 363 364 365 365 365 365 364 363 360 357 354 353 352 351 351 351 351 351 350 349 348 347 346 343 341 340 339 340 343 346 347 346 347 346 344 340 337 335 334 334 334
365 365 365 366 366 365 365 365 364 362 360 356 354 353 352 352 352 352 352 352 352 352 350 349 347 344 342 341 340 344 348 350 349 348 347 346 342 339 338 336 334 333
365 366 366 366 366 365 365 366 365 363 361 358 356 355 353 353 353 353 354 354 354 354 353 353 351 348 345 344 344 346 350 352 352 351 349 347 343 340 339 337 333 332
364 365 366 365 365 365 365 365 364 364 363 360 358 356 355 354 354 354 354 355 355 356 355 355 354 352 350 348 346 347 351 354 354 354 352 349 344 340 338 337 333 331
Wind_Speed
39 38 37 35 32 30 30 28 26 24 23 22 21 20 18 16 15 16 16 16 15 15 15 16 16 15 15 15 15 13 12 12 13 13 14 14 15 17 18 17 16 15
42 41 39 37 34 32 31 29 26 25 24 22 21 19 17 16 16 16 16 17 17 16 16 16 16 16 15 15 14 14 14 13 13 14 14 14 17 20 20 18 17 14
44 43 42 39 37 35 33 31 28 27 25 23 21 20 19 18 17 16 16 17 18 18 18 18 17 17 18 16 15 15 15 14 14 14 15 15 17 19 20 19 17 15
46 46 45 42 40 37 35 34 32 30 28 26 24 22 21 20 19 17 17 17 18 19 19 19 19 19 19 18 17 16 15 15 14 14 15 15 16 17 19 20 19 17
47 47 46 45 42 40 38 37 35 33 32 30 27 25 24 23 21 20 19 18 18 18 19 20 20 20 20 19 18 18 16 16 16 16 16 16 16 16 17 19 20 19
47 48 47 46 45 43 41 40 38 36 35 33 31 28 27 25 24 23 22 21 20 19 20 21 21 21 21 20 20 20 19 17 17 18 18 17 17 17 17 17 19 19
47 47 48 47 46 45 44 42 40 39 37 35 33 32 30 28 27 26 25 24 22 21 20 21 22 22 22 22 22 22 21 20 19 19 19 18 18 18 18 18 18 19
47 47 47 47 47 47 46 44 43 41 39 37 36 34 32 31 30 28 27 26 25 23 22 22 23 24 24 24 24 23 22 22 21 21 21 20 19 19 19 19 19 19
48 47 47 47 47 47 46 46 45 43 41 40 38 36 35 33 32 31 30 29 28 26 24 24 24 25 25 26 25 24 23 23 23 23 22 22 21 20 20 20 20 20
47 48 48 48 48 47 46 45 44 44 43 42 40 39 37 36 34 33 32 31 30 28 27 26 25 25 26 27 27 26 25 24 24 24 24 23 22 21 21 21 21 21
46 47 49 49 49 48 47 45 44 43 43 42 41 40 39 38 36 35 34 33 32 30 29 28 27 26 26 27 28 28 26 25 24 24 24 24 23 22 22 21 21 21
45 46 48 49 49 49 48 47 45 43 43 42 41 41 39 38 38 37 36 35 33 32 31 29 28 28 27 26 28 28 28 27 25 25 24 24 24 23 23 22 22 22
45 45 45 46 48 48 48 48 47 46 44 43 41 41 40 39 38 38 37 36 34 33 32 31 30 29 29 27 27 28 28 28 27 26 25 24 24 23 23 23 23 23
45 44 44 44 45 46 47 48 48 47 46 45 43 42 41 40 39 38 37 37 35 35 33 32 31 31 31 29 28 28 29 28 27 27 27 26 25 24 23 23 23 23
45 44 43 43 43 45 46 48 48 48 47 46 46 45 43 42 41 40 39 38 37 36 35 34 34 33 32 31 30 29 29 29 28 27 27 27 26 26 25 24 23 23
44 44 43 43 44 45 45 47 48 48 48 48 47 46 45 44 42 41 41 39 38 37 36 35 35 35 33 32 31 30 30 29 29 28 27 26 26 27 26 25 24 23
43 43 43 43 44 45 45 46 47 48 48 48 48 47 46 45 44 43 42 40 39 38 37 37 36 35 33 32 31 30 30 30 29 28 27 27 26 27 27 26 25 24
43 41 41 42 43 44 44 45 46 47 48 48 48 48 47 46 44 44 42 41 39 39 38 38 37 35 33 32 31 31 30 30 30 29 28 28 27 27 27 26 25 24
42 41 40 41 41 41 42 43 45 47 48 48 48 48 47 46 46 44 42 41 40 40 39 39 38 36 34 33 32 31 31 31 30 30 29 28 28 27 27 26 26 25
43 42 41 41 40 39 39 41 44 46 47 48 48 48 47 47 46 45 43 42 40 40 39 39 38 37 35 33 33 32 32 32 32 32 31 30 29 29 28 27 26 25
45 43 42 41 40 39 38 40 42 44 46 47 47 47 48 48 47 46 45 43 41 39 40 40 39 37 36 34 33 32 32 33 33 34 34 33 31 30 30 29 28 27
45 44 43 42 40 39 38 39 41 43 45 46 47 47 47 47 47 47 46 44 42 40 40 40 39 37 36 34 32 31 32 33 34 34 35 35 33 32 31 30 30 29
45 45 44 42 40 39 39 39 40 42 44 45 46 47 47 47 47 47 46 45 43 41 41 40 39 37 36 34 32 31 31 31 32 34 35 35 34 33 32 31 31 31
44 45 45 43 42 41 40 40 40 41 43 44 46 47 47 47 47 47 47 46 45 43 42 41 39 38 36 34 33 32 31 30 30 31 32 33 33 33 33 32 31 31
41 44 45 44 43 42 42 41 40 40 41 43 45 47 47 47 47 47 47 47 46 45 43 42 40 39 37 36 34 33 32 31 30 30 31 30 30 31 33 33 32 32
41 43 46 46 44 43 42 42 41 41 41 42 44 46 46 47 47 47 47 47 46 46 45 43 42 40 39 37 36 35 35 33 32 32 31 30 29 29 30 31 31 30
Wind_Direction
202 201 203 204 202 200 199 201 202 200 199 196 193 194 193 194 197 200 202 203 203 205 203 202 203 199 192 191 192 194 200 204 200 198 196 193 187 176 170 169 171 173
204 205 206 207 206 204 204 206 208 207 206 204 200 199 199 199 201 203 205 206 207 209 208 206 205 204 204 202 198 196 200 203 203 202 197 190 184 179 175 176 176 176
207 207 209 212 211 210 209 211 212 214 214 213 211 210 209 207 207 209 209 209 211 211 210 208 207 206 208 210 207 202 201 202 205 205 201 193 189 187 184 181 181 180
209 210 211 215 217 216 214 214 215 217 219 220 220 219 218 217 217 217 216 214 213 213 211 211 209 207 209 212 214 213 208 204 206 211 209 202 199 198 195 190 188 188
212 213 214 216 219 220 219 219 219 220 221 223 224 224 224 225 224 223 223 222 218 215 213 213 212 211 211 212 215 218 217 210 208 211 213 211 208 205 203 200 197 196
214 215 216 218 220 221 222 223 223 223 223 223 224 226 227 227 228 228 228 228 225 221 216 214 215 214 214 214 215 218 221 219 214 214 214 214 213 210 209 209 206 203
216 217 218 219 221 222 224 225 225 226 226 226 226 227 227 228 230 231 231 232 230 226 222 218 216 216 216 217 217 218 221 222 220 220 219 216 215 216 216 216 215 212
219 218 219 220 222 224 225 226 227 227 228 229 230 229 230 230 230 232 233 234 233 231 228 224 221 219 219 219 220 220 220 222 222 224 225 221 218 219 220 221 222 223
223 222 221 222 223 224 226 227 228 229 230 231 232 232 233 233 233 234 235 235 235 234 232 230 227 224 222 222 223 222 221 221 222 224 227 227 224 222 222 223 226 230
226 225 224 224 224 225 227 228 229 230 231 232 233 234 235 235 236 236 237 237 236 236 235 234 232 230 227 224 224 225 225 222 223 225 227 229 229 228 226 225 228 231
227 228 227 227 227 227 227 228 229 231 231 233 233 234 235 236 237 237 238 237 237 237 237 237 236 235 232 228 225 226 227 225 224 225 227 230 231 232 232 231 232 234
228 228 229 230 230 230 229 229 230 231 232 233 234 234 235 235 236 237 238 238 239 239 239 239 239 239 236 232 228 227 227 228 227 227 228 230 231 233 234 235 237 238
229 229 230 232 232 233 232 231 231 232 233 234 234 235 235 235 236 237 238 240 240 241 241 241 240 240 239 236 233 230 229 229 229 229 230 231 232 233 234 235 237 239
230 231 232 233 234 234 234 234 233 233 233 234 235 235 236 236 237 238 239 241 242 243 243 242 241 240 240 239 237 234 232 231 231 231 230 231 233 234 235 235 236 237
231 232 233 234 235 235 235 235 234 234 234 235 236 236 237 237 238 239 241 242 243 243 242 242 241 240 239 239 238 236 235 234 233 231 231 233 235 236 237 238 238 238
231 232 234 235 235 236 236 236 235 234 234 235 236 237 237 238 238 240 241 242 243 243 242 241 240 240 239 238 238 238 237 237 236 234 233 234 235 237 239 240 241 241
231 233 234 235 236 236 237 237 235 234 234 234 235 236 237 238 238 239 240 241 242 242 241 241 240 240 239 238 237 238 238 238 239 238 237 237 236 237 238 240 242 243
231 233 234 235 237 237 238 238 236 234 234 233 234 235 236 237 237 238 239 240 241 241 241 241 241 240 239 239 238 238 238 239 241 241 241 241 241 240 240 241 243 244
231 233 234 235 237 238 238 238 237 235 233 233 233 234 235 236 237 238 238 239 239 240 240 240 241 241 240 240 239 238 239 239 240 243 244 244 245 245 244 244 245 246
233 234 235 236 237 238 239 238 238 236 234 233 232 233 234 235 236 237 237 238 238 239 240 240 241 241 241 241 240 240 240 240 241 243 244 246 247 247 248 248 248 249
234 235 236 236 237 238 240 239 239 237 235 233 231 232 233 234 235 236 237 237 237 237 238 240 241 242 242 242 242 242 242 242 243 243 245 247 248 249 250 251 251 252
233 234 234 236 236 238 240 240 239 238 236 233 231 231 232 234 235 236 236 237 237 236 237 239 242 243 243 242 242 242 243 244 244 245 246 247 248 249 250 251 252 254
233 234 234 235 237 239 241 241 240 239 237 234 232 230 231 232 233 235 236 237 237 236 236 238 241 242 242 242 241 241 243 244 244 245 246 247 248 248 249 249 251 252
233 234 234 236 238 241 243 242 241 240 238 235 233 231 231 232 233 234 236 236 237 237 236 238 240 242 242 242 241 240 241 243 243 244 245 246 247 247 248 248 248 249
235 236 237 238 241 243 243 243 243 242 240 237 235 232 231 231 232 233 234 235 237 237 237 238 240 242 243 243 242 242 241 242 242 242 243 244 246 246 247 247 246 247
239 239 240 241 243 244 244 243 243 242 240 238 236 233 231 230 231 233 234 235 236 237 237 238 239 241 243 244 244 243 243 242 242 241 242 244 245 246 247 247 247 247